Liberia, Costa Rica

11:09 PM CST on May 24, 2017 (GMT -0600)
Liberia

Weather History for 78774 - October, 2012

Change the Weather History Date:

Tuesday, October 30, 2012

  Actual Average Record
Temperature  
Mean Temperature 78 °F -  
Max Temperature 90 °F 85 °F - ()
Min Temperature 67 °F 72 °F - ()
Cooling Degree Days 14    
Growing Degree Days 28 (Base 50)    
Moisture  
Dew Point 68 °F    
Average Humidity 60    
Maximum Humidity 91    
Minimum Humidity 37    
Precipitation  
Precipitation 0.00 in - - ()
Sea Level Pressure  
Sea Level Pressure 29.89 in    
Wind  
Wind Speed 7 mph ()    
Max Wind Speed 20 mph    
Max Gust Speed -    
Visibility 8.4 miles    
Events      
T = Trace of Precipitation, MM = Missing Value Source: Averaged Metar Reports

Daily Weather History Graph

Daily Weather History Graph

Search for Another Location

Airport or City:

Trip Planner

Search our weather history database for the weather conditions in past years. The results will help you decide how hot, cold, wet, or windy it might be!

Date:

Astronomy

Oct. 30, 2012 Rise Set
Actual Time 5:32 AM CST 5:18 PM CST
Civil Twilight 5:11 AM CST 5:40 PM CST
Nautical Twilight 4:46 AM CST 6:05 PM CST
Astronomical Twilight 4:21 AM CST 6:30 PM CST
Moon 6:02 PM CST (10/30) 6:06 AM CST (10/30)
Length of Visible Light 12h 28m
Length of Day
11h 45m
Full, 99% of the Moon is Illuminated
Oct 30
Full
Nov 6
Last Quarter
Nov 13
New
Nov 20
First Quarter
Nov 28
Full

Hourly Weather History & Observations

Time (CST) Temp. Heat Index Dew Point Humidity Pressure Visibility Wind Dir Wind Speed Gust Speed Precip Events Conditions
6:00 AM 69 °F - 67 °F 91% 29.91 in 12 mi Calm Calm - -   Clear
6:00 AM 69.8 °F - 66.2 °F 88% 29.90 in - Calm Calm - N/A   Clear
7:00 AM 75.2 °F - 69.8 °F 83% 29.92 in - NNW 3.5 mph - N/A   Clear
8:00 AM 80.6 °F 83.9 °F 69.8 °F 70% 29.94 in - SW 3.5 mph - N/A   Clear
9:00 AM 82 °F - 69 °F 57% 29.96 in 12 mi West 5.8 mph - -   Clear
9:00 AM 82.4 °F 86.3 °F 69.8 °F 66% 29.94 in - West 5.8 mph - N/A   Clear
10:00 AM 86.0 °F 90.4 °F 69.8 °F 58% 29.93 in - West 3.5 mph - N/A   Clear
10:15 AM 87.8 °F 91.4 °F 68.0 °F 52% 29.91 in - East 15.0 mph - N/A   Clear
11:00 AM 86.0 °F 88.2 °F 66.2 °F 51% 29.90 in - East 19.6 mph - N/A   Clear
12:00 PM 89 °F - 67 °F 39% 29.88 in 12 mi East 16.1 mph - -   Clear
12:00 PM 89.6 °F 92.2 °F 66.2 °F 46% 29.87 in - East 16.1 mph - N/A   Clear
1:00 PM 89.6 °F 93.4 °F 68.0 °F 49% 29.85 in 6.2 mi East 13.8 mph - N/A   Scattered Clouds
2:00 PM 89.6 °F 92.2 °F 66.2 °F 46% 29.84 in 6.2 mi East 10.4 mph - N/A   Mostly Cloudy
3:00 PM 90 °F - 67 °F 37% 29.85 in 12 mi ENE 12.7 mph - -   Scattered Clouds
3:00 PM 89.6 °F 93.4 °F 68.0 °F 49% 29.83 in 6.2 mi ENE 12.7 mph - N/A   Mostly Cloudy
4:00 PM 87.8 °F 91.4 °F 68.0 °F 52% 29.84 in 6.2 mi ENE 11.5 mph - N/A   Mostly Cloudy
5:00 PM 84.2 °F 87.3 °F 68.0 °F 58% 29.86 in 6.2 mi East 11.5 mph - N/A   Mostly Cloudy
6:00 PM 81 °F - 68 °F 57% 29.88 in 12 mi East 12.7 mph - -   Scattered Clouds
6:00 PM 80.6 °F 83.2 °F 68.0 °F 65% 29.87 in 6.2 mi East 12.7 mph - N/A   Mostly Cloudy
7:00 PM 78.8 °F - 68.0 °F 69% 29.91 in 6.2 mi East 10.4 mph - N/A   Scattered Clouds
8:00 PM 78.8 °F - 68.0 °F 69% 29.94 in 6.2 mi East 6.9 mph - N/A   Scattered Clouds